Probability
11 12 14 13 7 2 0 0 0 0 0 0 0 0 0 0 0 0 0 0 0 0 0 0 0 0 0 0 0 0 0 0 0 1 2 1 1 2 3 2 2 2 1 0 0 0 0 0 0
12 13 15 13 6 1 0 0 0 0 0 0 0 0 0 0 0 0 0 0 0 0 0 0 0 0 0 0 0 0 0 0 0 1 1 1 1 2 3 1 1 1 0 0 0 0 0 0 0
12 13 14 10 4 0 0 0 1 1 1 0 0 0 0 0 0 0 0 0 0 0 0 0 0 0 0 0 0 0 0 0 0 0 0 0 1 2 2 1 0 0 0 0 0 0 0 0 0
10 13 11 6 1 0 0 0 1 2 1 0 0 0 0 0 0 0 0 0 0 0 0 0 0 0 0 0 0 0 0 0 0 0 0 0 0 1 1 0 0 0 0 0 0 0 0 0 0
9 9 8 3 1 1 1 0 1 1 1 0 0 1 2 1 0 0 0 0 0 0 0 0 0 0 0 0 0 0 0 0 0 0 0 0 0 0 0 0 0 0 0 0 0 0 0 0 0
5 4 3 1 1 2 2 1 0 1 1 1 1 2 3 3 1 0 0 0 0 0 0 0 0 0 0 0 0 0 0 0 0 0 0 0 0 0 0 0 0 0 0 0 0 0 0 0 0
1 1 0 0 1 2 3 1 0 1 2 2 1 1 3 4 2 0 0 0 0 0 0 0 0 0 0 0 0 0 0 0 0 0 0 0 0 0 0 0 0 0 0 0 0 0 0 0 0
0 0 0 0 1 2 3 2 1 1 1 1 0 1 4 6 4 1 1 0 1 1 1 0 0 0 0 0 0 0 0 0 0 0 0 0 0 0 0 0 0 0 0 0 0 0 0 0 0
0 0 0 0 1 2 3 2 1 0 1 1 1 2 6 9 7 4 2 2 3 4 3 2 1 1 0 0 0 0 0 0 0 0 0 0 0 0 0 0 1 1 0 0 0 0 1 0 0
0 0 0 0 1 2 3 2 1 0 1 2 4 7 11 13 10 5 3 5 7 8 7 5 3 2 1 0 0 0 0 0 0 0 0 0 0 0 0 0 1 1 0 0 0 0 0 0 0
0 0 0 0 1 3 3 1 0 0 1 2 6 12 15 14 10 6 4 5 7 9 9 7 5 3 2 1 0 0 0 0 0 0 0 0 0 0 0 0 1 1 0 0 0 0 0 0 0
0 0 0 0 2 3 2 1 0 0 0 1 5 12 15 12 9 6 4 4 6 8 9 9 6 4 3 2 0 0 0 0 0 0 0 0 0 0 0 0 0 0 0 0 0 0 1 1 0
0 0 0 0 1 3 2 1 0 0 0 1 3 9 12 9 7 6 4 4 5 7 10 9 8 6 5 3 1 0 0 0 0 0 0 0 0 0 0 1 1 0 0 0 0 1 2 1 1
0 0 0 0 1 2 2 1 0 0 1 2 3 5 6 6 6 5 6 6 6 8 10 11 10 8 6 4 1 0 0 0 0 0 0 0 0 1 1 2 2 1 0 0 0 1 1 1 0
0 0 0 0 0 1 1 0 0 1 2 3 3 4 4 5 5 5 6 7 8 10 12 13 12 10 7 3 1 0 0 0 0 0 0 0 1 2 3 3 3 1 0 0 0 0 0 0 0
0 0 0 0 0 0 0 0 0 1 2 3 3 4 6 6 4 4 4 6 8 12 15 16 13 11 8 4 1 0 0 0 0 1 1 2 2 4 5 4 3 2 1 0 0 0 0 0 0
0 0 0 0 0 0 0 0 0 1 2 3 4 5 7 6 4 3 3 4 7 13 18 19 16 12 9 4 1 1 0 0 0 1 2 3 4 5 6 5 4 3 1 0 0 0 0 0 0
0 0 0 0 0 0 0 0 0 1 2 3 4 5 5 5 4 4 3 3 6 12 19 21 20 16 12 7 3 2 1 1 1 0 1 3 5 6 6 6 6 4 2 1 0 1 1 1 0
0 0 0 0 0 0 0 0 0 1 1 3 4 4 4 4 4 5 5 3 6 14 21 24 23 21 16 11 6 4 3 2 2 1 0 2 5 6 6 7 9 7 4 2 2 2 2 1 1
0 0 0 0 0 0 0 0 0 1 1 2 3 4 4 4 5 8 7 4 7 17 25 26 25 23 20 15 9 6 5 4 3 1 1 2 4 6 7 9 11 10 8 6 5 4 3 3 2
0 0 0 0 0 0 0 0 0 0 0 1 1 2 3 4 6 8 8 7 10 19 25 25 25 24 22 18 12 9 7 6 4 2 2 3 4 5 6 8 10 11 10 9 7 5 4 3 3
0 0 0 0 0 0 0 0 0 0 0 0 0 1 2 3 5 8 9 9 11 17 21 24 26 25 23 21 18 13 9 6 4 3 4 4 4 4 5 7 9 11 11 10 8 6 5 3 1
0 0 0 0 0 0 0 0 0 0 0 1 1 1 2 3 4 7 9 10 11 13 17 23 29 27 25 25 24 17 9 6 4 4 6 7 6 4 4 6 9 11 11 9 7 7 6 4 2
0 0 0 0 0 0 0 0 0 1 1 3 3 2 2 2 4 6 8 11 12 12 15 23 30 30 27 27 26 19 10 5 5 6 7 8 7 6 5 7 11 13 11 9 8 8 8 7 6
0 0 0 0 0 0 0 0 1 2 3 5 6 6 4 2 4 7 11 15 16 15 16 21 27 29 27 26 26 21 12 7 7 9 10 10 10 9 8 9 11 13 12 9 8 8 8 8 8
0 0 0 0 0 0 0 1 2 3 4 5 7 9 8 7 8 11 15 19 20 18 18 21 26 28 26 25 26 23 18 13 11 14 15 15 14 13 12 11 12 11 10 7 6 6 6 6 7
0 0 0 0 0 0 0 1 2 3 4 5 8 11 13 13 15 18 20 21 22 20 20 24 28 29 28 27 26 25 23 20 19 20 21 19 18 16 16 16 14 11 8 5 3 3 4 5 5
0 0 0 0 0 0 0 1 2 3 4 5 7 11 13 14 18 22 25 25 25 24 24 27 31 31 30 30 29 26 25 24 26 27 27 24 21 20 20 19 16 12 8 5 4 4 6 7 6
0 0 0 0 0 0 0 1 2 1 2 4 6 9 13 16 19 24 29 33 33 32 30 29 32 33 32 32 32 30 29 30 33 34 33 31 27 25 23 20 17 13 9 7 7 9 11 11 11
0 0 0 0 0 0 1 1 1 0 1 3 6 9 14 20 23 28 34 38 38 37 33 31 32 34 34 34 34 33 34 36 39 38 37 36 33 29 26 21 17 14 10 9 10 12 14 15 14
Wind_Speed
13 11 7 6 5 5 12 10 8 8 7 7 7 6 7 9 8 9 8 8 9 10 11 11 9 9 10 10 10 11 11 11 11 11 11 11 11 11 10 10 10 10 10 11 11 10 11 11 11
10 8 7 6 2 9 11 9 10 10 8 7 7 6 8 10 9 9 8 8 10 10 10 10 10 9 10 10 10 11 11 11 11 11 10 10 10 10 10 10 10 10 10 10 10 10 10 11 11
8 7 6 0 9 11 11 9 10 10 7 5 6 7 7 8 8 7 9 10 10 10 10 12 10 10 10 10 10 10 10 10 10 10 10 9 9 9 9 9 9 9 9 9 10 10 10 10 11
6 7 4 5 13 12 10 9 8 8 8 6 7 9 9 7 6 9 12 10 11 10 10 13 9 10 9 9 9 9 9 9 9 9 9 9 8 8 9 8 9 9 9 9 9 9 9 10 10
6 4 4 10 13 10 9 8 5 6 7 7 7 11 10 8 10 12 11 10 9 9 9 12 9 9 9 9 8 9 9 9 8 8 8 8 8 7 7 7 8 8 8 8 8 8 9 9 9
5 2 6 11 12 9 8 6 6 8 9 9 9 11 9 9 11 11 11 9 9 9 9 11 10 9 9 8 8 8 8 8 8 7 7 7 7 7 6 7 7 7 7 8 8 8 8 9 9
4 4 9 10 10 9 7 5 6 8 9 8 8 10 10 11 11 10 10 8 7 8 8 8 10 10 9 8 8 8 7 8 7 7 7 7 7 6 6 6 6 6 7 8 8 7 8 8 8
5 1 8 9 9 10 8 7 7 7 9 8 5 7 11 13 12 11 10 8 7 6 7 7 6 7 8 9 9 7 7 7 7 7 7 7 7 6 6 7 6 6 6 7 8 8 8 8 7
6 1 9 9 8 8 8 7 7 7 9 7 4 7 13 16 14 12 10 9 8 7 6 5 6 6 5 7 9 8 7 7 7 7 8 6 4 5 6 7 6 6 6 7 7 8 7 7 8
4 5 10 7 6 7 7 7 7 7 8 8 9 11 15 16 14 12 11 10 10 9 8 6 5 6 5 4 6 4 5 6 5 4 5 4 3 2 3 7 6 6 6 6 7 7 8 8 6
2 6 6 5 5 6 7 7 6 7 7 8 12 15 16 15 13 11 10 9 8 8 7 7 6 5 5 4 3 3 2 3 4 4 4 3 3 3 2 3 5 5 6 5 7 7 5 4 3
1 5 4 4 5 5 6 6 6 4 6 8 12 16 16 15 13 11 10 9 8 7 7 7 7 6 4 3 3 3 3 3 3 4 4 3 2 2 2 2 2 3 3 3 3 2 3 3 3
2 3 3 4 5 5 6 5 5 6 7 10 14 15 15 13 12 10 8 8 7 8 8 7 6 6 5 4 3 3 3 3 3 3 3 3 2 2 2 2 1 2 2 3 3 3 3 3 4
3 3 4 4 5 5 5 5 5 7 10 13 14 14 14 13 12 10 9 9 8 8 8 7 7 7 6 5 4 3 3 3 3 3 4 4 2 2 2 2 2 2 2 2 2 3 3 3 3
3 4 5 4 4 4 5 6 6 9 12 13 14 13 13 12 11 11 10 9 9 8 8 8 8 7 7 6 5 4 4 4 3 3 3 4 4 3 2 2 3 2 2 3 3 3 3 4 4
6 6 4 5 4 4 7 2 7 11 13 13 13 13 12 12 12 11 10 9 9 9 8 8 7 8 8 6 5 4 4 3 3 3 3 4 4 4 3 3 2 2 2 3 3 3 3 3 4
8 5 2 5 5 4 7 0 7 11 13 13 13 13 13 12 12 11 11 10 10 9 9 9 8 8 7 7 5 4 4 4 3 3 3 3 4 5 4 3 2 3 3 3 3 2 3 3 3
4 4 3 2 4 6 7 3 6 10 13 13 13 13 13 13 13 12 11 11 10 10 9 9 9 8 7 6 5 4 4 4 4 3 3 3 4 5 4 4 4 4 3 3 3 2 3 3 3
5 6 4 1 2 6 6 5 5 9 12 13 13 13 13 13 12 11 11 11 11 10 10 10 9 9 7 6 6 5 5 4 4 4 4 4 4 5 5 4 4 4 4 4 4 4 4 4 3
8 9 6 3 3 5 6 7 5 9 12 13 13 14 14 13 12 12 12 12 12 12 11 11 10 10 9 7 5 4 4 4 4 3 3 5 5 5 5 5 5 5 4 5 5 4 4 3 3
10 10 6 4 4 7 7 8 7 8 10 11 12 13 14 14 14 13 13 13 12 12 12 11 11 10 10 8 6 5 4 4 4 4 4 5 5 5 5 5 5 4 5 4 5 5 5 4 4
10 7 7 6 8 6 6 6 4 7 9 11 12 13 15 15 14 14 14 14 13 13 12 11 11 10 10 9 8 8 6 5 4 4 3 4 5 5 5 5 5 5 4 3 5 4 4 5 4
7 4 6 8 9 9 7 9 3 5 6 8 11 13 14 15 15 14 14 13 13 12 12 11 11 11 10 10 9 9 8 6 4 4 4 4 5 5 5 5 4 5 4 4 4 3 5 4 5
5 6 6 8 10 11 8 9 5 2 4 5 7 10 12 13 14 13 13 12 12 12 11 11 12 11 11 11 10 10 8 7 5 5 4 5 4 4 5 5 4 5 4 4 4 4 5 4 5
11 11 9 10 10 9 5 8 4 2 3 4 4 5 9 11 12 13 14 14 13 13 13 12 12 12 11 11 11 10 9 8 8 7 6 5 4 4 4 4 4 4 4 4 4 4 5 5 5
13 14 12 10 9 7 7 8 3 1 2 3 3 2 6 9 11 12 13 13 13 13 13 13 12 12 11 11 10 10 10 8 7 7 6 5 4 3 3 4 5 4 4 4 3 4 4 4 5
12 13 12 12 12 10 7 5 5 1 1 2 2 1 4 7 9 10 11 11 12 12 12 12 12 11 11 11 10 9 9 9 7 6 7 6 5 4 5 5 5 4 4 3 3 3 3 3 4
9 9 8 12 11 12 11 10 5 2 2 3 3 1 3 5 7 8 9 10 10 11 11 11 11 11 10 10 9 8 9 9 8 7 7 6 5 5 5 5 5 4 4 4 3 3 2 3 3
10 11 10 10 11 12 12 5 2 0 2 3 3 2 1 4 6 7 7 8 9 10 10 10 10 10 10 9 9 8 8 8 8 7 7 7 6 6 6 5 5 4 4 4 3 3 3 3 2
10 12 12 12 11 11 12 4 4 2 2 3 3 3 2 2 4 6 7 7 8 9 9 10 10 10 10 9 9 9 8 8 8 8 8 7 7 7 6 6 5 5 4 4 4 3 3 3 3
Wind_Direction
169 180 206 231 225 80 64 63 65 76 73 67 62 51 56 42 35 78 103 119 124 127 124 129 123 120 119 117 117 120 121 121 121 120 120 120 119 120 121 122 120 120 121 123 123 122 121 122 125
172 186 223 238 38 73 68 64 68 67 87 98 81 74 74 68 66 100 123 129 134 126 125 120 120 120 119 118 118 119 121 122 122 121 120 121 122 124 125 124 122 121 121 123 123 125 125 126 128
179 224 259 8 54 58 68 71 82 90 95 91 86 64 60 77 97 109 122 138 134 121 119 115 123 120 119 117 117 119 120 121 121 122 124 124 125 125 123 124 123 121 122 124 124 126 127 129 128
210 223 227 69 69 63 73 86 98 105 92 84 101 90 79 73 95 114 129 139 130 129 130 117 124 120 118 117 117 118 118 120 123 126 127 128 129 127 125 125 123 123 124 125 125 127 128 129 130
242 253 96 77 71 73 78 87 91 91 89 96 99 100 93 82 102 120 133 134 132 131 122 120 126 126 125 123 120 118 119 122 124 125 126 126 125 125 128 128 126 128 129 130 131 130 131 133 134
246 259 64 72 79 84 90 96 95 92 100 106 110 108 95 114 126 132 135 137 133 129 125 124 131 131 131 130 128 125 123 122 122 119 118 118 118 121 124 127 133 134 134 132 133 134 136 140 140
303 39 63 71 84 91 89 94 90 103 110 108 115 110 119 134 135 137 134 134 133 132 133 135 143 143 142 138 133 130 126 122 122 121 121 120 120 122 124 126 132 137 140 143 145 147 146 145 148
296 354 72 72 76 86 103 100 91 99 101 115 129 120 137 142 146 144 140 141 138 140 138 136 142 135 151 147 141 136 132 130 133 131 126 127 134 137 140 148 137 141 147 151 154 155 152 153 159
265 20 62 63 70 94 120 117 106 106 120 120 103 99 126 141 150 152 152 152 153 155 155 151 142 143 146 141 140 152 149 147 157 150 144 159 157 147 158 123 134 148 153 157 158 156 156 163 166
273 45 58 56 68 102 127 123 129 138 135 128 121 115 131 149 160 164 163 164 165 165 166 158 160 157 155 150 147 162 162 153 166 145 150 152 138 147 129 124 141 145 151 157 155 157 172 196 174
355 47 63 78 86 114 133 135 144 149 143 147 147 145 153 161 169 172 169 170 166 165 169 169 167 168 162 158 159 156 156 151 159 152 154 148 154 159 154 146 150 156 167 167 155 178 191 186 173
71 61 59 87 112 133 132 136 145 150 94 133 148 152 160 170 174 177 173 171 166 171 175 174 166 171 177 176 164 174 174 170 166 156 182 167 167 170 151 166 148 159 166 158 173 185 186 185 186
110 76 82 105 132 132 140 139 139 137 123 137 146 158 168 174 176 177 174 173 178 181 182 178 174 175 180 188 208 181 180 182 169 174 179 192 189 182 163 156 164 184 173 175 186 200 189 198 202
70 102 112 123 131 147 155 149 164 140 146 148 157 167 174 178 179 177 182 186 189 190 188 182 187 186 190 194 204 200 198 186 201 194 188 203 205 188 185 177 182 196 198 200 202 192 197 218 221
170 161 147 141 154 153 183 173 171 147 157 162 168 173 177 182 185 189 190 193 193 192 192 190 193 193 197 204 207 205 211 199 203 198 199 211 216 201 203 191 197 196 194 194 215 216 220 220 217
203 214 192 146 176 169 236 144 140 162 171 173 175 177 183 188 195 195 195 199 198 196 195 199 201 191 198 207 215 214 217 207 212 211 209 215 220 214 219 215 212 194 212 208 211 221 226 234 237
213 229 207 156 184 198 239 203 135 172 184 183 183 183 187 190 200 199 200 199 201 200 200 199 207 203 203 204 210 219 221 225 226 216 220 215 219 216 220 224 220 215 217 225 235 209 234 234 248
227 242 219 210 176 223 238 237 157 182 195 193 190 191 193 197 200 199 201 201 200 201 203 204 204 205 207 205 205 219 225 224 224 220 216 228 226 219 223 222 217 226 223 230 237 241 239 252 252
261 261 255 227 183 236 246 248 197 186 199 201 198 197 199 203 198 195 197 201 199 199 200 203 205 197 201 206 211 208 212 220 218 218 216 226 229 223 223 236 214 227 227 234 235 237 233 240 244
238 245 238 198 178 249 263 258 219 193 204 206 204 203 204 202 197 195 198 200 201 199 200 200 202 199 202 203 212 218 224 222 223 230 213 227 229 230 226 226 227 223 227 227 233 233 249 247 226
232 244 247 238 197 225 263 243 210 196 204 206 213 213 210 206 200 196 199 202 202 201 201 201 200 198 202 201 205 203 207 221 212 215 212 220 226 231 241 234 237 232 234 224 227 229 239 252 244
231 233 242 233 237 233 244 269 194 194 198 206 213 215 214 209 206 201 198 201 202 201 198 197 194 195 195 198 207 209 217 221 220 227 219 214 218 228 230 231 233 236 241 234 236 226 239 251 254
245 224 225 236 247 258 233 262 222 181 221 224 219 217 216 211 208 204 202 199 201 197 194 190 191 193 194 198 203 211 221 223 220 223 215 227 214 218 226 225 228 231 241 241 250 245 247 244 250
191 184 199 229 243 245 245 256 253 210 262 260 226 217 214 209 207 205 202 196 196 193 191 187 188 193 194 198 203 211 219 222 226 223 220 217 209 214 218 221 220 230 242 242 245 243 239 247 256
208 218 222 223 226 238 212 244 264 335 323 301 276 223 207 203 203 200 197 194 194 193 191 188 188 193 195 199 204 208 214 216 221 228 221 226 219 210 205 219 216 228 232 243 247 243 253 249 252
217 231 240 248 244 226 188 234 238 20 358 323 294 234 196 194 195 194 193 193 193 191 190 190 190 193 195 199 203 207 209 214 216 216 230 222 229 222 191 204 215 223 231 237 237 248 246 250 257
216 230 248 254 257 262 231 218 224 201 304 332 339 207 185 186 186 185 185 188 189 188 187 188 188 190 194 198 200 205 209 218 219 209 216 223 219 214 199 206 213 220 222 230 235 246 252 254 257
250 233 229 243 245 248 239 229 235 255 312 360 8 8 181 180 177 175 178 180 182 181 179 182 184 187 189 192 198 199 205 209 213 217 217 220 217 215 206 208 211 210 209 209 220 230 223 241 251
203 217 232 242 250 253 252 230 120 214 345 342 356 10 157 174 170 168 170 172 174 174 173 177 179 183 186 190 192 199 201 203 205 210 211 209 211 204 206 209 210 210 213 211 211 235 230 242 254
232 230 222 233 235 243 264 250 103 82 7 356 357 24 61 159 163 162 164 167 171 174 175 178 182 185 188 189 190 195 198 201 203 206 208 204 202 204 202 203 204 207 208 210 217 231 237 246 254